| time (UTC) | temp C | wind direction | speed KPH | gust KPH | rain 1hr cm | rain 24hr cm | rain mn cm | humidity % | barometer mb |
| 20260906230055 | 37 | 126 | 9.7 | 20.9 | 0.00 | 0.00 | 0.00 | 39 | 1009.4 |
| 20260906224556 | 38 | 147 | 4.8 | 14.5 | 0.00 | 0.00 | 0.00 | 37 | 1009.5 |
| 20260906223059 | 38 | 169 | 8.0 | 14.5 | 0.00 | 0.00 | 0.00 | 35 | 1009.3 |
| 20260906221606 | 40 | 115 | 11.3 | 17.7 | 0.00 | 0.00 | 0.00 | 34 | 1009.5 |
| 20260906214554 | 38 | 90 | 8.0 | 14.5 | 0.00 | 0.00 | 0.00 | 35 | 1009.8 |
| 20260906213056 | 38 | 119 | 6.4 | 16.1 | 0.00 | 0.00 | 0.00 | 36 | 1010.0 |
| 20260906211605 | 40 | 168 | 6.4 | 22.5 | 0.00 | 0.00 | 0.00 | 33 | 1010.0 |
| 20260906210059 | 39 | 150 | 4.8 | 14.5 | 0.00 | 0.00 | 0.00 | 36 | 1010.2 |
| 20260906204558 | 38 | 160 | 12.9 | 17.7 | 0.00 | 0.00 | 0.00 | 37 | 1010.5 |
| 20260906203101 | 36 | 236 | 8.0 | 16.1 | 0.00 | 0.00 | 0.00 | 41 | 1010.6 |
| 20260906201606 | 38 | 194 | 3.2 | 19.3 | 0.00 | 0.00 | 0.00 | 37 | 1010.8 |
| 20260906200100 | 38 | 114 | 8.0 | 19.3 | 0.00 | 0.00 | 0.00 | 39 | 1010.9 |
| 20260906194617 | 38 | 338 | 3.2 | 14.5 | 0.00 | 0.00 | 0.00 | 38 | 1011.0 |
| 20260906193112 | 38 | 137 | 9.7 | 17.7 | 0.00 | 0.00 | 0.00 | 39 | 1011.1 |
| 20260906191604 | 37 | 96 | 6.4 | 16.1 | 0.00 | 0.00 | 0.00 | 42 | 1011.3 |
| 20260906190059 | 36 | 213 | 6.4 | 17.7 | 0.00 | 0.00 | 0.00 | 42 | 1011.5 |
| 20260906184557 | 37 | 100 | 8.0 | 16.1 | 0.00 | 0.00 | 0.00 | 41 | 1011.6 |
| 20260906183116 | 37 | 98 | 9.7 | 19.3 | 0.00 | 0.00 | 0.00 | 42 | 1012.0 |
| 20260906181629 | 35 | 5 | 1.6 | 9.7 | 0.00 | 0.00 | 0.00 | 45 | 1012.1 |
| 20260906180052 | 35 | 138 | 6.4 | 12.9 | 0.00 | 0.00 | 0.00 | 45 | 1012.3 |
| 20260906174556 | 36 | 103 | 4.8 | 12.9 | 0.00 | 0.00 | 0.00 | 45 | 1012.4 |
| 20260906173056 | 36 | 123 | 4.8 | 17.7 | 0.00 | 0.00 | 0.00 | 44 | 1012.8 |
| 20260906171607 | 35 | 101 | 3.2 | 14.5 | 0.00 | 0.00 | 0.00 | 48 | 1013.1 |
| 20260906170107 | 35 | 140 | 3.2 | 14.5 | 0.00 | 0.00 | 0.00 | 50 | 1013.3 |
| 20260906164603 | 35 | 110 | 3.2 | 17.7 | 0.00 | 0.00 | 0.00 | 48 | 1013.4 |
| 20260906163059 | 35 | 179 | 6.4 | 14.5 | 0.00 | 0.00 | 0.00 | 49 | 1013.5 |
| 20260906161553 | 32 | 208 | 4.8 | 12.9 | 0.00 | 0.00 | 0.00 | 56 | 1013.4 |
| 20260906160057 | 33 | 0 | 1.6 | 12.9 | 0.00 | 0.00 | 0.00 | 58 | 1013.4 |
| 20260906154550 | 31 | 170 | 1.6 | 9.7 | 0.00 | 0.00 | 0.00 | 63 | 1013.3 |
| 20260906153100 | 31 | 142 | 3.2 | 9.7 | 0.00 | 0.00 | 0.00 | 63 | 1013.3 |
| 20260906151606 | 30 | 180 | 3.2 | 9.7 | 0.00 | 0.00 | 0.00 | 67 | 1013.2 |
| 20260906144611 | 29 | 140 | 1.6 | 9.7 | 0.00 | 0.00 | 0.00 | 69 | 1013.1 |
| 20260906143107 | 28 | 134 | 1.6 | 8.0 | 0.00 | 0.00 | 0.00 | 73 | 1013.1 |
| 20260906141559 | 27 | 120 | 3.2 | 6.4 | 0.00 | 0.00 | 0.00 | 76 | 1013.1 |
| 20260906140049 | 26 | 0 | 1.6 | 8.0 | 0.00 | 0.00 | 0.00 | 80 | 1013.1 |
| 20260906134554 | 26 | 156 | 1.6 | 8.0 | 0.00 | 0.00 | 0.00 | 82 | 1012.9 |
| 20260906133106 | 25 | 132 | 3.2 | 6.4 | 0.00 | 0.00 | 0.00 | 83 | 1013.0 |
| 20260906131600 | 25 | 127 | 3.2 | 8.0 | 0.00 | 0.00 | 0.00 | 84 | 1012.7 |
| 20260906130107 | 24 | 144 | 3.2 | 8.0 | 0.00 | 0.00 | 0.00 | 85 | 1012.6 |
| 20260906124558 | 23 | 144 | 3.2 | 6.4 | 0.00 | 0.00 | 0.00 | 86 | 1012.6 |
| 20260906123056 | 23 | 144 | 1.6 | 6.4 | 0.00 | 0.00 | 0.00 | 86 | 1012.4 |
| 20260906121601 | 23 | 144 | 1.6 | 6.4 | 0.00 | 0.00 | 0.00 | 85 | 1012.3 |
| 20260906120058 | 23 | 144 | 3.2 | 6.4 | 0.00 | 0.00 | 0.00 | 85 | 1012.1 |
| 20260906114558 | 24 | 144 | 3.2 | 8.0 | 0.00 | 0.00 | 0.00 | 84 | 1012.1 |
| 20260906113108 | 24 | 144 | 1.6 | 6.4 | 0.00 | 0.00 | 0.00 | 84 | 1012.0 |
| 20260906111559 | 24 | 144 | 3.2 | 6.4 | 0.00 | 0.00 | 0.00 | 84 | 1011.8 |
| 20260906110100 | 24 | 144 | 3.2 | 6.4 | 0.00 | 0.00 | 0.00 | 84 | 1011.7 |
| 20260906104601 | 24 | 144 | 1.6 | 4.8 | 0.00 | 0.00 | 0.00 | 84 | 1011.7 |
| 20260906103055 | 23 | 144 | 0.0 | 4.8 | 0.00 | 0.00 | 0.00 | 84 | 1011.6 |
| 20260906101555 | 23 | 0 | 0.0 | 0.0 | 0.00 | 0.00 | 0.00 | 85 | 1011.5 |
| 20260906100056 | 24 | 0 | 0.0 | 0.0 | 0.00 | 0.00 | 0.00 | 83 | 1011.2 |
| 20260906094608 | 25 | 0 | 0.0 | 4.8 | 0.00 | 0.00 | 0.00 | 82 | 1011.1 |
| 20260906093130 | 24 | 144 | 1.6 | 6.4 | 0.00 | 0.00 | 0.00 | 83 | 1011.2 |
| 20260906091609 | 24 | 0 | 0.0 | 1.6 | 0.00 | 0.00 | 0.00 | 82 | 1010.9 |
| 20260906090059 | 25 | 0 | 0.0 | 4.8 | 0.00 | 0.00 | 0.00 | 81 | 1010.8 |
| 20260906084551 | 25 | 144 | 0.0 | 4.8 | 0.00 | 0.00 | 0.00 | 81 | 1010.9 |
| 20260906083058 | 25 | 0 | 0.0 | 3.2 | 0.00 | 0.00 | 0.00 | 80 | 1010.9 |
| 20260906081557 | 25 | 0 | 0.0 | 3.2 | 0.00 | 0.00 | 0.00 | 79 | 1011.0 |
| 20260906080059 | 25 | 144 | 0.0 | 4.8 | 0.00 | 0.00 | 0.00 | 79 | 1011.0 |
| 20260906074556 | 26 | 144 | 1.6 | 4.8 | 0.00 | 0.00 | 0.00 | 78 | 1011.1 |
| 20260906073057 | 26 | 148 | 3.2 | 11.3 | 0.00 | 0.00 | 0.00 | 77 | 1011.2 |
| 20260906071555 | 26 | 157 | 4.8 | 11.3 | 0.00 | 0.00 | 0.00 | 76 | 1011.4 |
| 20260906064557 | 26 | 165 | 3.2 | 9.7 | 0.00 | 0.00 | 0.00 | 75 | 1011.6 |
| 20260906063057 | 27 | 112 | 3.2 | 9.7 | 0.00 | 0.00 | 0.00 | 74 | 1011.8 |
| 20260906061554 | 27 | 150 | 3.2 | 9.7 | 0.00 | 0.00 | 0.00 | 73 | 1011.9 |
| 20260906060130 | 27 | 126 | 4.8 | 11.3 | 0.00 | 0.00 | 0.00 | 73 | 1011.9 |
| 20260906054602 | 27 | 128 | 3.2 | 6.4 | 0.00 | 0.00 | 0.00 | 73 | 1011.8 |
| 20260906053054 | 27 | 139 | 1.6 | 4.8 | 0.00 | 0.00 | 0.00 | 73 | 1011.6 |
| 20260906051601 | 27 | 139 | 1.6 | 4.8 | 0.00 | 0.00 | 0.00 | 73 | 1011.6 |
| 20260906050108 | 27 | 139 | 1.6 | 6.4 | 0.00 | 0.00 | 0.00 | 72 | 1011.7 |
| 20260906044602 | 27 | 139 | 3.2 | 6.4 | 0.00 | 0.00 | 0.00 | 71 | 1011.8 |
| 20260906043104 | 27 | 139 | 0.0 | 4.8 | 0.00 | 0.00 | 0.00 | 70 | 1011.5 |
| 20260906041601 | 28 | 139 | 3.2 | 6.4 | 0.00 | 0.00 | 0.00 | 69 | 1011.4 |
| 20260906040103 | 28 | 147 | 4.8 | 14.5 | 0.00 | 0.00 | 0.00 | 67 | 1011.6 |
| 20260906034553 | 28 | 161 | 3.2 | 11.3 | 0.00 | 0.00 | 0.00 | 67 | 1011.5 |
| 20260906033050 | 29 | 182 | 3.2 | 12.9 | 0.00 | 0.00 | 0.00 | 67 | 1011.6 |
| 20260906031558 | 29 | 105 | 4.8 | 11.3 | 0.00 | 0.00 | 0.00 | 67 | 1011.7 |
| 20260906030057 | 29 | 117 | 4.8 | 9.7 | 0.00 | 0.00 | 0.00 | 67 | 1011.6 |
| 20260906024601 | 29 | 134 | 4.8 | 12.9 | 0.00 | 0.00 | 0.00 | 66 | 1011.4 |
| 20260906023051 | 30 | 101 | 4.8 | 11.3 | 0.00 | 0.00 | 0.00 | 65 | 1011.0 |
| 20260906021552 | 30 | 118 | 3.2 | 11.3 | 0.00 | 0.00 | 0.00 | 63 | 1010.8 |
| 20260906020055 | 30 | 129 | 4.8 | 12.9 | 0.00 | 0.00 | 0.00 | 61 | 1010.7 |
| 20260906014627 | 31 | 146 | 3.2 | 12.9 | 0.00 | 0.00 | 0.00 | 60 | 1010.5 |
| 20260906013059 | 31 | 155 | 8.0 | 19.3 | 0.00 | 0.00 | 0.00 | 57 | 1010.4 |
| 20260906011603 | 32 | 78 | 4.8 | 11.3 | 0.00 | 0.00 | 0.00 | 51 | 1009.9 |
| 20260906010105 | 32 | 111 | 1.6 | 8.0 | 0.00 | 0.00 | 0.00 | 49 | 1009.6 |
| 20260906004613 | 33 | 115 | 3.2 | 12.9 | 0.00 | 0.00 | 0.00 | 47 | 1009.7 |
| 20260906003110 | 33 | 124 | 4.8 | 12.9 | 0.00 | 0.00 | 0.00 | 46 | 1009.7 |
| 20260906001555 | 34 | 123 | 4.8 | 16.1 | 0.00 | 0.00 | 0.00 | 45 | 1009.6 |
| 20260906000050 | 35 | 113 | 8.0 | 20.9 | 0.00 | 0.00 | 0.00 | 43 | 1009.6 |
| 20260905234610 | 38 | 113 | 3.2 | 12.9 | 0.00 | 0.00 | 0.00 | 36 | 1009.5 |
| 20260905233057 | 38 | 169 | 4.8 | 14.5 | 0.00 | 0.00 | 0.00 | 35 | 1009.4 |
| 20260905231600 | 37 | 80 | 6.4 | 16.1 | 0.00 | 0.00 | 0.00 | 36 | 1009.5 |